This demonstration page uses our WeatherBlox Daily Observations layout. Learn more.

Left ArrowRight Arrow

41.12389, -100.76542

Hourly Observations for December 29, 2016

Temp ( °F °C ) Dew Point ( °F °C ) Humidity (%) Winds ( mph kmh ) Pressure ( in mb ) Visibility ( mi km ) Precip ( " mm )
12:53 am 00:53 Clear 26 -3.3 13 -10.6 57 57 W 12 19 30.35 1028 10 16 0.00 0.00
1:53 am 01:53 Clear 25 -3.9 12 -11.1 58 58 W 12 19 30.37 1029 10 16 0.00 0.00
2:53 am 02:53 Clear 22 -5.6 11 -11.7 63 63 WNW 9 15 30.40 1029 10 16 0.00 0.00
3:53 am 03:53 Clear 23 -5 11 -11.7 60 60 W 13 20 30.41 1030 10 16 0.00 0.00
4:53 am 04:53 Clear 25 -3.9 10 -12.2 53 53 WNW 14 22 30.42 1030 10 16 0.00 0.00
5:53 am 05:53 Clear 21 -6.1 10 -12.2 62 62 W 9 15 30.45 1031 10 16 0.00 0.00
6:53 am 06:53 Clear 21 -6.1 9 -12.8 59 59 WSW 9 15 30.48 1032 10 16 0.00 0.00
7:53 am 07:53 Clear 21 -6.1 9 -12.8 59 59 W 9 15 30.50 1033 10 16 0.00 0.00
8:53 am 08:53 Sunny 24 -4.4 10 -12.2 55 55 W 12 19 30.52 1034 10 16 0.00 0.00
9:53 am 09:53 Sunny 31 -0.6 7 -13.9 36 36 WNW 15 24 30.52 1034 10 16 0.00 0.00
10:53 am 10:53 Sunny 37 2.8 7 -13.9 28 28 WNW 17 28 30.53 1034 10 16 0.00 0.00
11:53 am 11:53 Sunny 42 5.6 6 -14.4 22 22 NW 18 30 30.51 1033 10 16 0.00 0.00
12:53 pm 12:53 Sunny 44 6.7 5 -15 20 20 NW 22 35 30.48 1032 10 16 0.00 0.00
1:53 pm 13:53 Sunny 45 7.2 4 -15.6 18 18 NW 18 30 30.46 1032 10 16 0.00 0.00
2:53 pm 14:53 Sunny 44 6.7 3 -16.1 18 18 NW 20 31 30.45 1031 10 16 0.00 0.00
3:53 pm 15:53 Sunny 43 6.1 2 -16.7 18 18 WNW 16 26 30.45 1031 10 16 0.00 0.00
4:53 pm 16:53 Sunny 38 3.3 3 -16.1 23 23 WNW 7 11 30.44 1031 10 16 0.00 0.00
5:53 pm 17:53 Clear 33 0.6 6 -14.4 32 32 W 3 6 30.45 1031 10 16 0.00 0.00
6:53 pm 18:53 Clear 21 -6.1 9 -12.8 59 59 Calm 30.45 1031 10 16 0.00 0.00
7:53 pm 19:53 Clear 19 -7.2 9 -12.8 65 65 E 6 9 30.44 1031 10 16 0.00 0.00
8:53 pm 20:53 Clear 19 -7.2 8 -13.3 62 62 E 3 6 30.42 1030 10 16 0.00 0.00
9:53 pm 21:53 Clear 18 -7.8 12 -11.1 77 77 Calm 30.39 1029 10 16 0.00 0.00
10:53 pm 22:53 Clear 22 -5.6 10 -12.2 60 60 ESE 3 6 30.33 1027 10 16 0.00 0.00
11:53 pm 23:53 Clear 17 -8.3 9 -12.8 70 70 ESE 5 7 30.29 1026 10 16 0.00 0.00

Powered by AerisWeather